| time (UTC) | temp F | wind direction | speed MPH | gust MPH | rain 1hr in | rain 24hr in | rain mn in | humidity % | barometer mb |
| 20260506035538 | 34 | 344 | 4.0 | 9.0 | 0.00 | 0.00 | 0.00 | 58 | 1013.6 |
| 20260506035035 | 34 | 15 | 4.0 | 9.0 | 0.00 | 0.00 | 0.00 | 57 | 1013.6 |
| 20260506034538 | 34 | 7 | 6.0 | 10.0 | 0.00 | 0.00 | 0.00 | 57 | 1013.6 |
| 20260506034032 | 34 | 18 | 6.0 | 10.0 | 0.00 | 0.00 | 0.00 | 57 | 1013.6 |
| 20260506033534 | 34 | 9 | 6.0 | 10.0 | 0.00 | 0.00 | 0.00 | 57 | 1013.6 |
| 20260506033039 | 35 | 346 | 6.0 | 10.0 | 0.00 | 0.00 | 0.00 | 57 | 1013.6 |
| 20260506032533 | 35 | 342 | 6.0 | 9.0 | 0.00 | 0.00 | 0.00 | 57 | 1013.5 |
| 20260506032035 | 35 | 338 | 6.0 | 9.0 | 0.00 | 0.00 | 0.00 | 57 | 1013.5 |
| 20260506031556 | 35 | 358 | 6.0 | 10.0 | 0.00 | 0.00 | 0.00 | 57 | 1013.5 |
| 20260506031033 | 34 | 358 | 5.0 | 10.0 | 0.00 | 0.00 | 0.00 | 57 | 1013.5 |
| 20260506030534 | 34 | 357 | 5.0 | 10.0 | 0.00 | 0.00 | 0.00 | 57 | 1013.5 |
| 20260506030041 | 34 | 354 | 4.0 | 9.0 | 0.00 | 0.00 | 0.00 | 58 | 1013.5 |
| 20260506025533 | 34 | 31 | 5.0 | 9.0 | 0.00 | 0.00 | 0.00 | 57 | 1013.5 |
| 20260506025033 | 34 | 354 | 5.0 | 8.0 | 0.00 | 0.00 | 0.00 | 58 | 1013.5 |
| 20260506024540 | 34 | 4 | 3.0 | 7.0 | 0.00 | 0.00 | 0.00 | 59 | 1013.5 |
| 20260506024033 | 34 | 21 | 2.0 | 6.0 | 0.00 | 0.00 | 0.00 | 59 | 1013.6 |
| 20260506023533 | 34 | 349 | 2.0 | 6.0 | 0.00 | 0.00 | 0.00 | 59 | 1013.5 |
| 20260506023038 | 34 | 359 | 3.0 | 8.0 | 0.00 | 0.00 | 0.00 | 60 | 1013.5 |
| 20260506022532 | 34 | 11 | 4.0 | 9.0 | 0.00 | 0.00 | 0.00 | 58 | 1013.4 |
| 20260506022032 | 34 | 344 | 5.0 | 9.0 | 0.00 | 0.00 | 0.00 | 58 | 1013.6 |
| 20260506021551 | 34 | 17 | 4.0 | 9.0 | 0.00 | 0.00 | 0.00 | 59 | 1013.5 |
| 20260506021033 | 34 | 360 | 4.0 | 10.0 | 0.00 | 0.00 | 0.00 | 58 | 1013.6 |
| 20260506020534 | 35 | 16 | 5.0 | 10.0 | 0.00 | 0.00 | 0.00 | 57 | 1013.5 |
| 20260506020045 | 35 | 335 | 6.0 | 10.0 | 0.00 | 0.00 | 0.00 | 57 | 1013.5 |
| 20260506015532 | 35 | 11 | 6.0 | 9.0 | 0.00 | 0.00 | 0.00 | 57 | 1013.4 |
| 20260506015034 | 35 | 359 | 4.0 | 9.0 | 0.00 | 0.00 | 0.00 | 57 | 1013.5 |
| 20260506014545 | 35 | 344 | 5.0 | 10.0 | 0.00 | 0.00 | 0.00 | 57 | 1013.5 |
| 20260506014033 | 35 | 328 | 6.0 | 10.0 | 0.00 | 0.00 | 0.00 | 56 | 1013.4 |
| 20260506013532 | 36 | 357 | 6.0 | 10.0 | 0.00 | 0.00 | 0.00 | 56 | 1013.4 |
| 20260506013046 | 36 | 332 | 6.0 | 10.0 | 0.00 | 0.00 | 0.00 | 56 | 1013.4 |
| 20260506012533 | 35 | 360 | 6.0 | 9.0 | 0.00 | 0.00 | 0.00 | 56 | 1013.4 |
| 20260506012035 | 35 | 360 | 4.0 | 9.0 | 0.00 | 0.00 | 0.00 | 57 | 1013.4 |
| 20260506011540 | 35 | 13 | 3.0 | 10.0 | 0.00 | 0.00 | 0.00 | 57 | 1013.2 |
| 20260506011035 | 35 | 353 | 4.0 | 10.0 | 0.00 | 0.00 | 0.00 | 57 | 1013.3 |
| 20260506010533 | 35 | 322 | 1.0 | 4.0 | 0.00 | 0.00 | 0.00 | 57 | 1013.3 |
| 20260506010043 | 35 | 56 | 0.0 | 8.0 | 0.00 | 0.00 | 0.00 | 57 | 1013.3 |
| 20260506005533 | 35 | 0 | 1.0 | 8.0 | 0.00 | 0.00 | 0.00 | 57 | 1013.2 |
| 20260506005032 | 35 | 328 | 2.0 | 6.0 | 0.00 | 0.00 | 0.00 | 56 | 1013.2 |
| 20260506004538 | 35 | 47 | 0.0 | 6.0 | 0.00 | 0.00 | 0.00 | 56 | 1013.1 |
| 20260506004033 | 36 | 2 | 2.0 | 8.0 | 0.00 | 0.00 | 0.00 | 56 | 1013.1 |
| 20260506003534 | 36 | 28 | 4.0 | 8.0 | 0.00 | 0.00 | 0.00 | 56 | 1013.1 |
| 20260506003045 | 35 | 9 | 2.0 | 8.0 | 0.00 | 0.00 | 0.00 | 57 | 1013.1 |
| 20260506002537 | 35 | 345 | 1.0 | 6.0 | 0.00 | 0.00 | 0.00 | 57 | 1013.2 |
| 20260506002034 | 35 | 359 | 2.0 | 6.0 | 0.00 | 0.00 | 0.00 | 58 | 1013.1 |
| 20260506001544 | 35 | 342 | 0.0 | 7.0 | 0.00 | 0.00 | 0.00 | 57 | 1013.2 |
| 20260506001035 | 36 | 340 | 2.0 | 7.0 | 0.00 | 0.00 | 0.00 | 57 | 1013.1 |
| 20260506000535 | 36 | 8 | 4.0 | 9.0 | 0.00 | 0.00 | 0.00 | 57 | 1013.1 |
| 20260506000044 | 36 | 347 | 5.0 | 9.0 | 0.00 | 0.00 | 0.00 | 57 | 1013.1 |
| 20260505235535 | 36 | 356 | 6.0 | 9.0 | 0.00 | 0.00 | 0.00 | 56 | 1013.2 |
| 20260505235035 | 36 | 346 | 1.0 | 7.0 | 0.00 | 0.00 | 0.00 | 56 | 1013.3 |
| 20260505234557 | 37 | 347 | 4.0 | 9.0 | 0.00 | 0.00 | 0.00 | 56 | 1013.1 |
| 20260505234034 | 37 | 345 | 4.0 | 9.0 | 0.00 | 0.00 | 0.00 | 56 | 1013.1 |
| 20260505233535 | 37 | 32 | 5.0 | 7.0 | 0.00 | 0.00 | 0.00 | 56 | 1013.1 |
| 20260505233042 | 37 | 4 | 4.0 | 10.0 | 0.00 | 0.00 | 0.00 | 55 | 1013.2 |
| 20260505232535 | 37 | 35 | 5.0 | 10.0 | 0.00 | 0.00 | 0.00 | 55 | 1013.0 |
| 20260505232035 | 37 | 355 | 4.0 | 10.0 | 0.00 | 0.00 | 0.00 | 55 | 1013.1 |
| 20260505231546 | 37 | 321 | 5.0 | 10.0 | 0.00 | 0.00 | 0.00 | 57 | 1013.1 |
| 20260505231037 | 36 | 5 | 4.0 | 7.0 | 0.00 | 0.00 | 0.00 | 58 | 1013.1 |
| 20260505230534 | 36 | 338 | 4.0 | 7.0 | 0.00 | 0.00 | 0.00 | 59 | 1013.0 |
| 20260505230038 | 36 | 2 | 2.0 | 6.0 | 0.00 | 0.00 | 0.00 | 59 | 1013.1 |
| 20260505225535 | 36 | 51 | 1.0 | 5.0 | 0.00 | 0.00 | 0.00 | 58 | 1013.0 |
| 20260505225036 | 37 | 349 | 1.0 | 6.0 | 0.00 | 0.00 | 0.00 | 56 | 1013.1 |
| 20260505224546 | 38 | 345 | 4.0 | 8.0 | 0.00 | 0.00 | 0.00 | 55 | 1013.1 |
| 20260505224035 | 38 | 26 | 4.0 | 8.0 | 0.00 | 0.00 | 0.00 | 54 | 1013.0 |
| 20260505223535 | 38 | 345 | 5.0 | 8.0 | 0.00 | 0.00 | 0.00 | 54 | 1013.1 |
| 20260505223051 | 37 | 338 | 3.0 | 6.0 | 0.00 | 0.00 | 0.00 | 55 | 1013.1 |
| 20260505222535 | 38 | 0 | 0.0 | 5.0 | 0.00 | 0.00 | 0.00 | 56 | 1013.2 |
| 20260505222036 | 38 | 0 | 1.0 | 6.0 | 0.00 | 0.00 | 0.00 | 54 | 1013.0 |
| 20260505221549 | 38 | 345 | 3.0 | 6.0 | 0.00 | 0.00 | 0.00 | 53 | 1013.0 |
| 20260505221034 | 38 | 329 | 4.0 | 6.0 | 0.00 | 0.00 | 0.00 | 53 | 1013.1 |
| 20260505220539 | 37 | 4 | 3.0 | 5.0 | 0.00 | 0.00 | 0.00 | 55 | 1013.1 |
| 20260505220048 | 37 | 345 | 0.0 | 3.0 | 0.00 | 0.00 | 0.00 | 55 | 1013.2 |
| 20260505215535 | 38 | 0 | 1.0 | 3.0 | 0.00 | 0.00 | 0.00 | 54 | 1013.2 |
| 20260505215034 | 38 | 14 | 0.0 | 4.0 | 0.00 | 0.00 | 0.00 | 54 | 1013.1 |
| 20260505214550 | 38 | 0 | 0.0 | 4.0 | 0.00 | 0.00 | 0.00 | 53 | 1013.0 |
| 20260505214035 | 39 | 51 | 1.0 | 4.0 | 0.00 | 0.00 | 0.00 | 53 | 1013.0 |
| 20260505213535 | 39 | 44 | 1.0 | 4.0 | 0.00 | 0.00 | 0.00 | 52 | 1013.0 |
| 20260505213044 | 39 | 0 | 0.0 | 4.0 | 0.00 | 0.00 | 0.00 | 52 | 1013.0 |
| 20260505212534 | 40 | 6 | 0.0 | 5.0 | 0.00 | 0.00 | 0.00 | 51 | 1013.0 |
| 20260505212033 | 40 | 23 | 2.0 | 6.0 | 0.00 | 0.00 | 0.00 | 49 | 1013.0 |
| 20260505211539 | 40 | 333 | 4.0 | 6.0 | 0.00 | 0.00 | 0.00 | 49 | 1012.9 |
| 20260505211033 | 40 | 345 | 5.0 | 6.0 | 0.00 | 0.00 | 0.00 | 50 | 1012.9 |
| 20260505210532 | 40 | 12 | 1.0 | 4.0 | 0.00 | 0.00 | 0.00 | 50 | 1012.9 |
| 20260505210039 | 41 | 33 | 0.0 | 6.0 | 0.00 | 0.00 | 0.00 | 50 | 1012.9 |
| 20260505205533 | 41 | 0 | 1.0 | 11.0 | 0.00 | 0.00 | 0.00 | 47 | 1012.7 |
| 20260505205033 | 42 | 332 | 3.0 | 11.0 | 0.00 | 0.00 | 0.00 | 46 | 1012.6 |
| 20260505204539 | 43 | 326 | 7.0 | 11.0 | 0.00 | 0.00 | 0.00 | 44 | 1012.6 |
| 20260505204032 | 42 | 18 | 5.0 | 9.0 | 0.00 | 0.00 | 0.00 | 46 | 1012.6 |
| 20260505203532 | 41 | 345 | 1.0 | 4.0 | 0.00 | 0.00 | 0.00 | 51 | 1012.7 |
| 20260505203038 | 41 | 0 | 0.0 | 1.0 | 0.00 | 0.00 | 0.00 | 53 | 1012.5 |
| 20260505202537 | 41 | 0 | 0.0 | 6.0 | 0.00 | 0.00 | 0.00 | 53 | 1012.5 |
| 20260505202035 | 42 | 70 | 0.0 | 6.0 | 0.00 | 0.00 | 0.00 | 53 | 1012.5 |
| 20260505201538 | 41 | 9 | 0.0 | 3.0 | 0.00 | 0.00 | 0.00 | 58 | 1012.4 |
| 20260505201032 | 41 | 34 | 0.0 | 3.0 | 0.00 | 0.00 | 0.00 | 58 | 1012.3 |
| 20260505200532 | 42 | 0 | 0.0 | 3.0 | 0.00 | 0.00 | 0.00 | 63 | 1012.3 |
| 20260505200048 | 42 | 41 | 1.0 | 3.0 | 0.00 | 0.00 | 0.00 | 66 | 1012.3 |
| 20260505195535 | 42 | 293 | 1.0 | 3.0 | 0.00 | 0.00 | 0.00 | 68 | 1012.1 |
| 20260505195033 | 42 | 326 | 1.0 | 4.0 | 0.00 | 0.00 | 0.00 | 69 | 1012.1 |
| 20260505194540 | 43 | 314 | 0.0 | 4.0 | 0.00 | 0.00 | 0.00 | 68 | 1012.2 |
| 20260505194033 | 43 | 345 | 0.0 | 3.0 | 0.00 | 0.00 | 0.00 | 67 | 1012.1 |
| 20260505193532 | 43 | 0 | 0.0 | 1.0 | 0.00 | 0.00 | 0.00 | 67 | 1012.0 |
| 20260505193038 | 44 | 0 | 0.0 | 2.0 | 0.00 | 0.00 | 0.00 | 66 | 1012.0 |
| 20260505192533 | 44 | 250 | 0.0 | 2.0 | 0.00 | 0.00 | 0.00 | 66 | 1012.0 |
| 20260505192032 | 44 | 248 | 1.0 | 2.0 | 0.00 | 0.00 | 0.00 | 65 | 1011.9 |
| 20260505191540 | 45 | 176 | 0.0 | 2.0 | 0.00 | 0.00 | 0.00 | 63 | 1011.8 |
| 20260505191035 | 45 | 0 | 0.0 | 2.0 | 0.00 | 0.00 | 0.00 | 62 | 1011.8 |
| 20260505190532 | 45 | 136 | 0.0 | 3.0 | 0.00 | 0.00 | 0.00 | 62 | 1011.7 |
| 20260505190040 | 46 | 209 | 1.0 | 3.0 | 0.00 | 0.00 | 0.00 | 62 | 1011.7 |
| 20260505185532 | 46 | 148 | 1.0 | 3.0 | 0.00 | 0.00 | 0.00 | 61 | 1011.6 |
| 20260505185035 | 46 | 137 | 0.0 | 3.0 | 0.00 | 0.00 | 0.00 | 60 | 1011.7 |
| 20260505184537 | 46 | 0 | 1.0 | 3.0 | 0.00 | 0.00 | 0.00 | 60 | 1011.7 |
| 20260505184032 | 46 | 168 | 1.0 | 4.0 | 0.00 | 0.00 | 0.00 | 60 | 1011.5 |
| 20260505183532 | 46 | 145 | 1.0 | 4.0 | 0.00 | 0.00 | 0.00 | 59 | 1011.5 |
| 20260505183044 | 47 | 0 | 1.0 | 6.0 | 0.00 | 0.00 | 0.00 | 59 | 1011.6 |
| 20260505182534 | 47 | 155 | 3.0 | 6.0 | 0.00 | 0.00 | 0.00 | 59 | 1011.5 |
| 20260505182037 | 47 | 195 | 2.0 | 6.0 | 0.00 | 0.00 | 0.00 | 58 | 1011.5 |
| 20260505181545 | 47 | 174 | 2.0 | 7.0 | 0.00 | 0.00 | 0.00 | 58 | 1011.5 |
| 20260505181035 | 47 | 155 | 4.0 | 7.0 | 0.00 | 0.00 | 0.00 | 57 | 1011.4 |
| 20260505180538 | 47 | 175 | 4.0 | 8.0 | 0.00 | 0.00 | 0.00 | 56 | 1011.4 |
| 20260505180051 | 48 | 221 | 2.0 | 8.0 | 0.00 | 0.00 | 0.00 | 55 | 1011.4 |
| 20260505175534 | 48 | 205 | 4.0 | 11.0 | 0.00 | 0.00 | 0.00 | 55 | 1011.2 |
| 20260505175035 | 48 | 237 | 5.0 | 11.0 | 0.00 | 0.00 | 0.00 | 54 | 1011.4 |
| 20260505174553 | 48 | 233 | 6.0 | 11.0 | 0.00 | 0.00 | 0.00 | 54 | 1011.4 |
| 20260505174035 | 48 | 205 | 4.0 | 8.0 | 0.00 | 0.00 | 0.00 | 52 | 1011.4 |
| 20260505173535 | 47 | 269 | 3.0 | 8.0 | 0.00 | 0.00 | 0.00 | 53 | 1011.3 |
| 20260505173046 | 47 | 215 | 5.0 | 10.0 | 0.00 | 0.00 | 0.00 | 52 | 1011.3 |
| 20260505172535 | 47 | 202 | 6.0 | 13.0 | 0.00 | 0.00 | 0.00 | 50 | 1011.3 |
| 20260505172035 | 47 | 204 | 6.0 | 13.0 | 0.00 | 0.00 | 0.00 | 50 | 1011.4 |
| 20260505171545 | 48 | 229 | 9.0 | 14.0 | 0.00 | 0.00 | 0.00 | 50 | 1011.3 |
| 20260505171036 | 48 | 223 | 9.0 | 14.0 | 0.00 | 0.00 | 0.00 | 49 | 1011.1 |
| 20260505170535 | 48 | 219 | 9.0 | 14.0 | 0.00 | 0.00 | 0.00 | 47 | 1011.0 |
| 20260505170043 | 48 | 221 | 9.0 | 14.0 | 0.00 | 0.00 | 0.00 | 48 | 1011.1 |
| 20260505165534 | 48 | 166 | 9.0 | 14.0 | 0.00 | 0.00 | 0.00 | 47 | 1011.0 |
| 20260505165035 | 48 | 227 | 7.0 | 12.0 | 0.00 | 0.00 | 0.00 | 47 | 1011.0 |
| 20260505164542 | 49 | 262 | 8.0 | 15.0 | 0.00 | 0.00 | 0.00 | 46 | 1011.0 |
| 20260505164034 | 49 | 222 | 10.0 | 15.0 | 0.00 | 0.00 | 0.00 | 46 | 1011.0 |
| 20260505163535 | 48 | 217 | 9.0 | 15.0 | 0.00 | 0.00 | 0.00 | 45 | 1011.1 |
| 20260505163050 | 49 | 245 | 10.0 | 15.0 | 0.00 | 0.00 | 0.00 | 45 | 1010.9 |
| 20260505162535 | 49 | 220 | 10.0 | 15.0 | 0.00 | 0.00 | 0.00 | 44 | 1010.9 |
| 20260505162035 | 49 | 210 | 10.0 | 14.0 | 0.00 | 0.00 | 0.00 | 42 | 1010.9 |
| 20260505161546 | 49 | 231 | 9.0 | 15.0 | 0.00 | 0.00 | 0.00 | 44 | 1010.9 |
| 20260505161035 | 50 | 218 | 8.0 | 15.0 | 0.00 | 0.00 | 0.00 | 42 | 1010.8 |
| 20260505160535 | 51 | 224 | 10.0 | 15.0 | 0.00 | 0.00 | 0.00 | 42 | 1011.0 |
| 20260505153041 | 50 | 329 | 5.0 | 13.0 | 0.00 | 0.00 | 0.00 | 25 | 1010.8 |
| 20260505152533 | 51 | 347 | 6.0 | 13.0 | 0.00 | 0.00 | 0.00 | 24 | 1010.8 |
| 20260505152031 | 50 | 318 | 6.0 | 12.0 | 0.00 | 0.00 | 0.00 | 26 | 1010.9 |
| 20260505151540 | 50 | 319 | 7.0 | 12.0 | 0.00 | 0.00 | 0.00 | 25 | 1010.7 |
| 20260505151035 | 51 | 15 | 6.0 | 17.0 | 0.00 | 0.00 | 0.00 | 27 | 1010.8 |
| 20260505150533 | 50 | 273 | 5.0 | 17.0 | 0.00 | 0.00 | 0.00 | 26 | 1010.8 |
| 20260505140532 | 53 | 356 | 7.0 | 12.0 | 0.00 | 0.00 | 0.00 | 23 | 1010.9 |
| 20260505130107 | 51 | 70 | 3.0 | 15.0 | 0.00 | 0.00 | 0.00 | 24 | 1011.0 |
| 20260505125032 | 51 | 20 | 5.0 | 14.0 | 0.00 | 0.00 | 0.00 | 24 | 1011.2 |
| 20260505124551 | 51 | 244 | 6.0 | 14.0 | 0.00 | 0.00 | 0.00 | 22 | 1011.0 |
| 20260505124032 | 52 | 314 | 7.0 | 12.0 | 0.00 | 0.00 | 0.00 | 23 | 1011.1 |
| 20260505123534 | 52 | 310 | 6.0 | 19.0 | 0.00 | 0.00 | 0.00 | 25 | 1011.2 |
| 20260505123045 | 52 | 283 | 4.0 | 19.0 | 0.00 | 0.00 | 0.00 | 24 | 1011.0 |
| 20260505122532 | 51 | 243 | 7.0 | 19.0 | 0.00 | 0.00 | 0.00 | 23 | 1010.9 |
| 20260505122032 | 51 | 297 | 7.0 | 15.0 | 0.00 | 0.00 | 0.00 | 24 | 1011.0 |
| 20260505121551 | 51 | 344 | 8.0 | 13.0 | 0.00 | 0.00 | 0.00 | 22 | 1010.9 |
| 20260505121035 | 51 | 60 | 4.0 | 12.0 | 0.00 | 0.00 | 0.00 | 25 | 1010.9 |
| 20260505120535 | 52 | 243 | 5.0 | 12.0 | 0.00 | 0.00 | 0.00 | 22 | 1010.9 |
| 20260505120038 | 51 | 242 | 2.0 | 5.0 | 0.00 | 0.00 | 0.00 | 24 | 1011.0 |
| 20260505115534 | 51 | 150 | 1.0 | 14.0 | 0.00 | 0.00 | 0.00 | 25 | 1010.9 |
| 20260505115036 | 50 | 94 | 3.0 | 14.0 | 0.00 | 0.00 | 0.00 | 23 | 1010.9 |
| 20260505114547 | 51 | 340 | 8.0 | 14.0 | 0.00 | 0.00 | 0.00 | 23 | 1011.1 |
| 20260505114035 | 51 | 343 | 6.0 | 12.0 | 0.00 | 0.00 | 0.00 | 26 | 1010.9 |
| 20260505113535 | 51 | 334 | 4.0 | 11.0 | 0.00 | 0.00 | 0.00 | 23 | 1011.0 |
| 20260505113049 | 50 | 248 | 5.0 | 15.0 | 0.00 | 0.00 | 0.00 | 24 | 1011.1 |
| 20260505112538 | 50 | 253 | 9.0 | 15.0 | 0.00 | 0.00 | 0.00 | 24 | 1011.0 |
| 20260505112035 | 50 | 315 | 6.0 | 11.0 | 0.00 | 0.00 | 0.00 | 26 | 1011.2 |
| 20260505111541 | 51 | 298 | 5.0 | 11.0 | 0.00 | 0.00 | 0.00 | 26 | 1011.2 |
| 20260505111034 | 51 | 269 | 6.0 | 11.0 | 0.00 | 0.00 | 0.00 | 28 | 1011.1 |
| 20260505110535 | 51 | 283 | 4.0 | 12.0 | 0.00 | 0.00 | 0.00 | 34 | 1011.1 |
| 20260505102034 | 49 | 329 | 9.0 | 14.0 | 0.00 | 0.00 | 0.00 | 29 | 1011.4 |
| 20260505101547 | 49 | 155 | 5.0 | 12.0 | 0.00 | 0.00 | 0.00 | 30 | 1011.2 |
| 20260505101035 | 49 | 299 | 6.0 | 15.0 | 0.00 | 0.00 | 0.00 | 32 | 1011.3 |
| 20260505100535 | 48 | 332 | 9.0 | 15.0 | 0.00 | 0.00 | 0.00 | 31 | 1011.2 |
| 20260505100040 | 48 | 299 | 4.0 | 12.0 | 0.00 | 0.00 | 0.00 | 34 | 1011.2 |
| 20260505095534 | 47 | 297 | 6.0 | 13.0 | 0.00 | 0.00 | 0.00 | 31 | 1011.3 |
| 20260505095034 | 47 | 308 | 8.0 | 15.0 | 0.00 | 0.00 | 0.00 | 32 | 1011.3 |
| 20260505094540 | 48 | 334 | 10.0 | 15.0 | 0.00 | 0.00 | 0.00 | 32 | 1011.2 |
| 20260505094034 | 48 | 275 | 3.0 | 12.0 | 0.00 | 0.00 | 0.00 | 35 | 1011.2 |
| 20260505093534 | 47 | 296 | 6.0 | 10.0 | 0.00 | 0.00 | 0.00 | 33 | 1011.3 |
| 20260505093044 | 47 | 300 | 3.0 | 15.0 | 0.00 | 0.00 | 0.00 | 34 | 1011.3 |
| 20260505092534 | 47 | 30 | 8.0 | 15.0 | 0.00 | 0.00 | 0.00 | 31 | 1011.2 |
| 20260505092034 | 47 | 313 | 6.0 | 11.0 | 0.00 | 0.00 | 0.00 | 32 | 1011.3 |
| 20260505091541 | 47 | 319 | 6.0 | 13.0 | 0.00 | 0.00 | 0.00 | 38 | 1011.2 |
| 20260505091036 | 46 | 345 | 4.0 | 13.0 | 0.00 | 0.00 | 0.00 | 36 | 1011.2 |
| 20260505090534 | 46 | 21 | 8.0 | 13.0 | 0.00 | 0.00 | 0.00 | 37 | 1011.3 |
| 20260505090051 | 46 | 336 | 6.0 | 10.0 | 0.00 | 0.00 | 0.00 | 36 | 1011.1 |
| 20260505085535 | 47 | 359 | 4.0 | 9.0 | 0.00 | 0.00 | 0.00 | 39 | 1011.1 |
| 20260505085036 | 46 | 309 | 5.0 | 16.0 | 0.00 | 0.00 | 0.00 | 37 | 1011.1 |
| 20260505084548 | 45 | 354 | 3.0 | 16.0 | 0.00 | 0.00 | 0.00 | 40 | 1011.1 |
| 20260505084033 | 45 | 342 | 9.0 | 14.0 | 0.00 | 0.00 | 0.00 | 38 | 1011.2 |
| 20260505083535 | 44 | 325 | 7.0 | 14.0 | 0.00 | 0.00 | 0.00 | 38 | 1011.2 |
| 20260505083046 | 44 | 323 | 6.0 | 13.0 | 0.00 | 0.00 | 0.00 | 38 | 1011.2 |
| 20260505082535 | 45 | 20 | 3.0 | 11.0 | 0.00 | 0.00 | 0.00 | 38 | 1011.3 |
| 20260505082034 | 44 | 51 | 6.0 | 11.0 | 0.00 | 0.00 | 0.00 | 39 | 1011.2 |
| 20260505081551 | 44 | 283 | 4.0 | 15.0 | 0.00 | 0.00 | 0.00 | 39 | 1011.3 |
| 20260505081034 | 44 | 269 | 4.0 | 15.0 | 0.00 | 0.00 | 0.00 | 40 | 1011.3 |
| 20260505080538 | 43 | 326 | 8.0 | 14.0 | 0.00 | 0.00 | 0.00 | 39 | 1011.3 |
| 20260505080048 | 43 | 297 | 7.0 | 12.0 | 0.00 | 0.00 | 0.00 | 40 | 1011.2 |
| 20260505075535 | 43 | 346 | 6.0 | 12.0 | 0.00 | 0.00 | 0.00 | 39 | 1011.3 |
| 20260505075034 | 43 | 313 | 5.0 | 13.0 | 0.00 | 0.00 | 0.00 | 41 | 1011.2 |
| 20260505074541 | 43 | 295 | 8.0 | 13.0 | 0.00 | 0.00 | 0.00 | 40 | 1011.1 |
| 20260505074034 | 43 | 347 | 8.0 | 13.0 | 0.00 | 0.00 | 0.00 | 40 | 1011.2 |
| 20260505073535 | 43 | 329 | 7.0 | 13.0 | 0.00 | 0.00 | 0.00 | 41 | 1011.2 |
| 20260505073048 | 42 | 340 | 4.0 | 12.0 | 0.00 | 0.00 | 0.00 | 42 | 1011.2 |
| 20260505072534 | 42 | 295 | 5.0 | 12.0 | 0.00 | 0.00 | 0.00 | 43 | 1011.1 |
| 20260505072036 | 42 | 321 | 6.0 | 18.0 | 0.00 | 0.00 | 0.00 | 44 | 1011.0 |
| 20260505071552 | 42 | 290 | 7.0 | 19.0 | 0.00 | 0.00 | 0.00 | 44 | 1011.1 |
| 20260505071034 | 41 | 337 | 9.0 | 19.0 | 0.00 | 0.00 | 0.00 | 44 | 1011.0 |
| 20260505070536 | 41 | 349 | 6.0 | 19.0 | 0.00 | 0.00 | 0.00 | 45 | 1010.9 |
| 20260505070044 | 41 | 293 | 7.0 | 13.0 | 0.00 | 0.00 | 0.00 | 45 | 1010.9 |
| 20260505065534 | 40 | 342 | 9.0 | 13.0 | 0.00 | 0.00 | 0.00 | 45 | 1010.9 |
| 20260505065033 | 40 | 330 | 6.0 | 14.0 | 0.00 | 0.00 | 0.00 | 44 | 1010.8 |
| 20260505064542 | 40 | 323 | 6.0 | 14.0 | 0.00 | 0.00 | 0.00 | 45 | 1010.8 |
| 20260505064036 | 40 | 352 | 6.0 | 16.0 | 0.00 | 0.00 | 0.00 | 45 | 1010.9 |
| 20260505063534 | 40 | 4 | 7.0 | 16.0 | 0.00 | 0.00 | 0.00 | 45 | 1010.8 |
| 20260505063047 | 40 | 314 | 7.0 | 15.0 | 0.00 | 0.00 | 0.00 | 46 | 1011.0 |
| 20260505062534 | 40 | 339 | 5.0 | 13.0 | 0.00 | 0.00 | 0.00 | 46 | 1010.9 |
| 20260505062035 | 40 | 17 | 6.0 | 11.0 | 0.00 | 0.00 | 0.00 | 46 | 1010.8 |
| 20260505061548 | 40 | 342 | 6.0 | 13.0 | 0.00 | 0.00 | 0.00 | 47 | 1010.9 |
| 20260505061034 | 39 | 1 | 7.0 | 13.0 | 0.00 | 0.00 | 0.00 | 49 | 1010.9 |
| 20260505060536 | 39 | 312 | 4.0 | 13.0 | 0.00 | 0.00 | 0.00 | 50 | 1010.9 |
| 20260505060051 | 39 | 302 | 5.0 | 17.0 | 0.00 | 0.00 | 0.00 | 49 | 1010.8 |
| 20260505055538 | 39 | 309 | 8.0 | 17.0 | 0.00 | 0.00 | 0.00 | 48 | 1010.9 |
| 20260505055035 | 39 | 323 | 6.0 | 11.0 | 0.00 | 0.00 | 0.00 | 50 | 1010.9 |
| 20260505054555 | 39 | 328 | 4.0 | 17.0 | 0.00 | 0.00 | 0.00 | 50 | 1011.0 |
| 20260505054035 | 38 | 356 | 9.0 | 17.0 | 0.00 | 0.00 | 0.00 | 50 | 1010.9 |
| 20260505053534 | 38 | 349 | 6.0 | 16.0 | 0.00 | 0.00 | 0.00 | 50 | 1010.8 |
| 20260505053054 | 38 | 53 | 7.0 | 16.0 | 0.00 | 0.00 | 0.00 | 51 | 1010.7 |
| 20260505052534 | 38 | 1 | 7.0 | 14.0 | 0.00 | 0.00 | 0.00 | 52 | 1010.8 |
| 20260505052034 | 38 | 309 | 6.0 | 14.0 | 0.00 | 0.00 | 0.00 | 51 | 1010.7 |
| 20260505051549 | 38 | 329 | 2.0 | 8.0 | 0.00 | 0.00 | 0.00 | 53 | 1010.8 |
| 20260505051034 | 38 | 355 | 1.0 | 11.0 | 0.00 | 0.00 | 0.00 | 52 | 1010.7 |
| 20260505050536 | 37 | 356 | 4.0 | 11.0 | 0.00 | 0.00 | 0.00 | 53 | 1010.6 |
| 20260505041545 | 34 | 0 | 0.0 | 2.0 | 0.00 | 0.00 | 0.00 | 61 | 1010.5 |
| 20260505041034 | 33 | 0 | 0.0 | 2.0 | 0.00 | 0.00 | 0.00 | 62 | 1010.5 |
| 20260505040537 | 32 | 0 | 0.0 | 2.0 | 0.00 | 0.00 | 0.00 | 64 | 1010.5 |